Find Starlink 36119

NORAD ID: 67619 Int'l Des: 2026-020 Owner: SPXS Country: US Constellation: starlink operational
LEOCIRCULAR

Current View

Loading 3D Globe...

About Starlink 36119

Description loading...

Upcoming Passes

Passes for default location (London). Set your location on the main map for personalized predictions.

Altitude History

Loading altitude history...

Two-Line Element Set

1 67619U 26020C 26146.12384936 .00012277 00000-0 45478-3 0 9994
2 67619 42.9982 62.6949 0001273 267.4719 92.5987 15.27588680 17952
Epoch: May 26, 2026 • Age: 20 hours

Current Status

Altitude 494.6 km
Velocity 7.62 km/s
Sub-Earth Point -40.94°S, 77.56°E
Launch Date Jan 30, 2026
Age 0.3 years
Type internet

Technical Details

Classification Payload
Mass 575.00 kg
Dry Mass 530.00 kg
Total Mass 575.00 kg
Length 0.30 m
Diameter 4.10 m
Span 29.00 m
Shape Box + pan
Manufacturer SPXS
Bus Type Starlink V2MO
Phase Status In Orbit
Owner/State SPXS/US

Most Searched